Temperature
21 20 20 21 18 17 18 19 19 19 19 19 19 19 18 18 18 18 18 18 18 18 18 17 17 17 17 17 17 17 17 17 17 17 17 17 17 17 17 17 17 17 17 17 17 17 17 17 17
21 21 21 20 17 18 19 19 19 19 20 20 19 19 18 18 18 18 18 18 18 18 18 18 17 17 17 17 17 17 17 17 17 17 17 17 17 17 17 17 17 17 17 17 17 17 17 17 17
21 21 21 17 18 18 19 19 19 20 20 20 19 19 19 18 18 18 18 18 18 18 18 18 17 17 17 17 17 17 17 17 17 17 17 17 17 17 17 17 17 17 17 17 17 17 17 17 17
21 21 20 17 19 19 19 19 19 20 20 20 19 18 19 19 19 19 18 18 18 18 18 18 17 17 17 17 17 17 17 17 17 17 17 17 17 17 17 17 17 17 17 17 17 17 17 17 17
21 21 18 18 19 19 19 20 20 20 20 19 19 18 18 19 19 19 18 18 18 18 18 17 17 17 17 17 17 17 17 17 17 17 17 17 17 17 17 17 17 17 17 17 17 17 17 17 17
21 18 17 18 19 19 19 20 20 19 19 19 19 18 18 19 19 19 18 18 18 18 18 17 17 17 17 17 17 17 17 17 17 17 17 17 17 17 17 17 17 17 17 17 17 17 17 16 17
20 17 17 18 18 19 20 21 20 19 19 20 20 18 19 19 19 19 18 18 18 18 18 17 17 17 17 17 17 17 17 17 17 17 17 17 17 17 17 16 16 16 16 17 17 16 16 16 16
21 17 18 18 19 20 20 21 21 20 20 20 20 19 19 19 19 18 18 18 18 18 18 17 17 17 17 17 17 17 17 17 17 17 17 16 16 16 16 16 16 16 16 16 16 16 16 16 16
21 17 17 18 19 20 20 20 21 21 20 20 20 20 20 19 19 18 18 18 18 18 18 17 17 17 17 17 17 17 17 17 17 17 16 16 16 16 16 16 16 16 16 16 16 16 16 16 16
20 17 19 19 19 19 20 20 21 20 20 20 20 20 20 20 19 19 18 18 18 18 18 17 17 17 17 17 17 17 17 17 17 16 16 16 16 16 16 16 16 16 16 16 16 16 16 16 16
19 18 19 20 20 21 20 20 21 20 19 20 20 20 20 19 19 19 19 19 19 18 18 18 17 17 17 17 17 17 17 17 16 16 16 16 16 16 16 16 16 16 16 16 16 16 16 16 16
19 19 20 20 21 21 20 20 20 20 21 21 21 21 20 20 19 19 19 19 19 18 18 18 17 17 17 17 17 17 17 17 16 16 16 16 16 16 16 16 16 16 16 16 16 16 16 16 15
19 19 20 21 21 21 21 20 20 20 21 21 21 20 20 20 20 19 19 19 19 18 18 18 17 17 17 17 17 17 17 16 16 16 16 16 16 16 16 16 16 15 15 15 15 15 15 15 15
20 20 20 21 21 21 20 20 20 20 21 21 21 20 20 20 20 19 19 19 19 18 18 18 17 17 17 17 17 17 16 16 16 16 16 16 16 16 15 15 15 15 15 15 15 15 15 15 15
20 19 19 20 20 20 20 19 19 21 21 20 20 20 20 20 20 19 19 19 19 19 18 18 18 17 17 17 17 17 16 16 16 16 16 16 16 15 15 15 15 15 15 15 15 15 15 15 15
19 18 18 19 20 20 20 19 19 21 20 20 20 20 20 20 19 19 19 19 19 19 18 18 18 17 17 17 17 17 16 16 16 16 16 16 15 15 15 15 15 15 15 15 15 15 15 15 15
18 17 18 19 20 20 19 19 19 20 19 19 19 19 19 19 19 19 19 19 19 19 19 18 18 18 17 17 17 17 16 16 16 16 16 15 15 15 15 15 15 15 15 15 15 15 15 15 15
18 18 18 18 19 19 18 18 18 19 18 18 18 19 19 19 19 19 19 19 19 19 19 18 18 18 17 17 17 16 16 16 16 16 16 15 15 15 15 15 15 15 15 15 15 15 15 15 14
18 18 18 18 19 19 18 17 17 18 17 17 17 18 18 19 19 19 19 19 19 19 18 18 18 18 17 17 17 17 16 16 16 16 15 15 15 15 15 15 15 15 15 15 15 14 14 14 14
18 18 18 18 19 19 17 17 17 17 17 17 17 17 18 19 19 19 19 19 19 19 18 18 18 18 17 17 17 17 16 16 16 15 15 15 15 15 15 15 15 14 14 14 14 14 14 14 14
18 18 18 18 18 18 18 17 17 16 17 17 17 17 18 18 19 19 19 19 19 18 18 18 18 18 17 17 17 16 16 16 15 15 15 15 15 15 14 14 14 14 14 14 14 14 14 14 14
18 19 19 18 17 16 17 16 16 15 16 16 16 17 18 18 19 19 19 19 19 18 18 18 18 17 17 17 17 16 16 16 16 15 15 15 15 15 14 14 14 14 14 14 14 14 14 14 14
18 18 18 18 17 16 16 16 15 15 15 15 15 17 18 18 18 19 19 19 19 18 18 18 17 17 17 17 17 16 16 16 15 15 15 15 14 14 14 14 14 14 14 14 14 13 13 13 13
18 17 16 15 15 15 15 15 15 14 15 15 15 16 17 18 18 18 18 18 18 18 18 18 17 17 17 16 16 16 16 16 15 15 15 14 14 14 14 14 14 14 14 14 13 13 13 13 13
17 16 15 16 14 15 15 15 15 15 15 15 15 16 17 17 17 18 18 18 18 18 17 17 17 17 16 16 16 16 16 15 15 15 15 14 14 14 14 14 14 14 14 13 13 13 13 13 13
17 16 15 16 15 14 15 14 15 15 15 16 16 16 16 16 17 17 17 17 18 17 17 17 17 16 16 16 16 16 15 15 15 15 15 14 14 14 14 14 14 13 13 13 13 13 13 13 12
17 15 15 14 14 14 14 14 15 15 15 15 15 15 15 16 16 16 17 17 17 17 17 17 16 16 16 16 15 15 15 15 15 15 14 14 14 14 14 13 13 13 13 13 13 13 12 12 12
16 14 13 14 14 14 15 14 14 15 15 14 14 14 15 16 16 16 16 16 16 16 16 16 16 16 16 15 15 15 15 15 15 14 14 14 14 14 13 13 13 13 13 13 13 12 12 12 12
16 15 13 12 13 13 14 14 15 14 14 13 13 14 15 15 16 16 16 16 16 16 16 15 15 15 15 15 15 15 15 15 14 14 14 14 14 13 13 13 13 13 13 13 12 12 12 12 12
16 15 14 14 13 12 12 13 15 14 13 13 14 14 15 15 15 15 15 15 15 15 15 15 15 15 15 14 14 14 14 14 14 14 14 13 13 13 13 13 13 13 13 12 12 12 12 12 12
Wind_Speed
3 3 3 4 5 6 3 2 1 1 3 2 3 6 6 4 2 2 1 3 3 2 2 4 6 7 7 8 9 9 10 10 10 11 11 11 11 10 10 9 8 8 7 8 8 8 8 9 9
1 2 4 5 5 4 2 2 2 1 4 4 4 5 5 3 2 4 1 2 4 3 3 4 6 7 7 8 9 10 10 10 10 11 11 11 11 10 10 9 8 7 8 8 9 9 9 10 10
2 3 4 5 4 3 2 0 3 3 3 2 4 4 4 2 2 3 3 5 4 3 3 4 7 7 8 9 9 10 10 10 10 10 11 10 10 10 10 10 9 9 10 10 9 10 11 11 11
4 5 5 6 5 1 2 2 3 4 3 4 4 4 2 1 4 4 5 6 5 3 3 4 7 8 8 9 9 9 9 9 9 9 10 10 10 10 11 11 12 12 12 12 12 12 12 11 11
4 5 6 5 3 2 0 1 2 3 2 3 4 4 2 3 4 6 6 6 5 3 3 4 7 7 8 9 8 9 9 8 9 9 9 9 9 10 11 12 13 13 13 13 13 12 12 12 12
5 5 5 3 2 2 1 1 3 4 4 3 4 4 1 1 5 6 6 6 5 4 3 4 6 7 7 8 7 7 7 8 8 8 9 9 10 10 11 11 12 12 13 13 13 12 12 12 12
5 5 4 4 2 1 0 2 4 5 3 2 4 4 1 2 4 6 6 6 5 3 3 3 4 5 5 6 6 6 6 7 7 7 8 9 9 10 10 11 11 12 12 12 13 13 12 12 12
4 5 4 2 3 1 0 2 2 4 3 3 4 5 3 4 5 7 6 5 4 3 2 3 3 3 3 4 5 6 6 6 6 7 7 8 8 9 9 9 10 11 12 12 12 12 12 13 13
4 5 2 3 4 2 1 2 1 2 4 2 1 3 3 9 9 8 5 3 3 3 2 2 2 2 3 3 4 5 6 6 7 6 7 7 7 7 8 8 9 10 11 12 13 13 13 13 13
5 4 4 4 4 3 1 2 2 3 3 1 2 4 7 10 10 8 7 6 5 4 3 2 2 1 2 2 4 4 5 6 6 6 7 7 7 7 7 8 9 10 11 12 13 13 12 11 10
3 5 3 1 3 3 2 1 2 6 2 4 5 6 8 9 8 8 7 7 7 5 4 3 3 2 2 2 3 3 4 4 5 5 6 6 6 6 7 6 7 8 9 9 10 10 9 9 8
3 1 2 1 2 2 2 2 2 4 5 5 6 9 10 10 9 9 8 7 5 5 5 4 3 3 2 2 2 3 3 2 2 3 4 5 4 4 4 4 5 6 6 6 7 6 7 8 8
2 0 0 2 1 1 2 2 2 3 3 4 7 8 9 9 8 7 7 6 6 6 5 4 4 4 3 2 2 3 2 2 3 3 3 4 3 2 3 3 4 5 5 5 5 5 6 6 6
1 1 1 1 0 1 2 1 2 4 3 6 7 7 8 8 8 6 6 7 7 7 6 5 5 5 4 3 2 2 2 3 3 3 3 4 4 3 3 3 3 4 4 4 5 4 5 4 5
2 3 4 2 0 1 3 2 3 4 4 5 6 6 6 6 6 7 8 9 9 7 7 6 6 5 5 4 3 3 3 4 3 2 3 4 4 4 3 3 2 2 4 5 5 5 5 4 5
4 4 2 4 1 1 4 4 5 2 5 5 4 4 5 5 5 6 7 7 7 7 7 7 7 6 5 4 3 3 3 4 3 3 3 4 4 4 4 2 2 2 4 4 3 3 4 4 4
4 1 1 4 2 1 3 5 4 1 5 5 5 5 5 5 5 6 7 7 8 8 8 8 7 7 6 5 4 3 3 3 3 3 3 3 4 4 4 2 2 3 3 3 3 3 3 3 3
3 2 2 4 3 1 2 5 5 2 4 5 5 4 5 6 7 6 6 6 6 7 7 8 7 6 6 4 3 3 2 2 2 2 3 4 4 5 4 3 3 3 3 2 3 3 3 3 2
4 3 4 5 3 1 4 5 6 3 2 4 4 5 6 8 5 4 4 5 6 6 7 7 7 6 6 4 4 3 2 1 1 1 3 4 4 5 4 3 3 3 2 2 2 3 3 2 2
3 3 4 5 2 1 3 5 5 2 2 4 5 6 7 6 4 3 4 4 6 7 7 7 7 7 7 5 4 3 3 2 1 1 1 2 3 4 4 3 3 3 3 2 2 3 2 1 2
3 5 5 4 3 2 1 5 3 2 1 1 2 4 4 6 7 6 5 6 5 7 9 8 8 7 7 6 4 4 3 2 1 0 0 1 3 4 4 4 3 3 3 3 2 3 3 1 1
4 5 5 3 0 3 0 3 5 4 3 3 3 3 4 4 4 4 5 5 6 7 7 7 7 7 6 6 6 7 5 4 4 3 2 1 2 3 4 4 4 3 3 3 3 2 2 3 1
4 1 2 2 3 1 1 2 6 2 3 5 4 4 4 3 3 4 5 6 6 5 6 6 6 6 6 6 7 7 5 4 2 2 2 1 1 2 3 4 4 3 3 3 2 2 2 2 2
2 4 4 4 3 2 3 3 5 3 5 4 4 3 3 2 1 2 2 2 2 3 4 5 6 6 6 6 6 7 7 6 4 3 3 2 1 1 2 3 3 3 3 3 3 2 2 2 2
5 5 3 3 2 4 2 3 5 5 4 4 4 3 2 1 1 1 1 1 2 3 4 5 6 5 6 6 7 7 7 7 7 5 5 3 2 2 3 3 3 3 3 3 3 2 2 2 2
2 6 5 4 4 4 2 4 5 4 3 1 1 1 2 2 1 1 0 1 2 3 4 5 5 5 5 6 6 6 6 6 5 6 5 5 4 4 4 3 3 3 3 3 3 2 2 2 2
4 3 4 5 2 2 4 4 5 2 3 3 3 3 2 1 1 1 1 0 1 2 3 5 6 4 4 5 5 5 5 6 6 5 5 4 4 3 4 4 4 4 4 4 4 2 3 2 3
4 6 4 4 3 3 4 4 4 3 3 2 2 2 2 2 1 2 2 1 1 2 2 3 4 5 4 4 4 4 5 5 5 4 5 5 4 4 4 4 3 3 3 4 4 3 3 3 3
2 3 4 3 3 4 3 6 4 5 4 3 3 2 2 2 1 1 1 1 1 2 2 2 3 3 3 3 3 3 3 4 4 4 5 5 4 4 5 5 4 4 4 3 3 4 3 3 3
3 4 5 3 3 3 3 6 4 3 3 3 3 3 2 1 1 1 2 2 2 1 1 1 1 2 2 3 3 3 3 3 3 3 4 4 4 4 5 5 5 5 4 4 5 5 4 4 4
Wind_Direction
354 55 70 59 56 55 52 354 344 49 53 46 73 88 101 97 115 139 277 134 121 109 94 97 96 93 91 88 87 87 88 90 88 85 83 82 79 77 77 76 80 84 87 90 91 93 90 89 88
61 75 55 59 79 74 14 342 60 96 140 131 77 76 79 68 71 113 129 156 126 121 110 109 108 102 96 92 90 90 88 88 88 86 83 81 78 75 72 69 77 89 94 95 93 94 92 89 84
81 59 74 67 83 124 134 83 112 90 114 96 76 59 87 107 124 156 186 148 121 108 107 121 114 108 102 97 92 91 89 88 87 85 84 81 78 76 72 66 75 86 92 94 93 90 89 86 83
70 45 55 69 76 100 157 159 131 102 66 55 94 71 54 52 153 163 148 131 121 108 106 123 114 107 104 100 96 93 91 88 87 85 84 81 78 75 72 68 74 81 84 86 87 85 85 84 83
60 71 61 57 41 3 53 150 126 97 77 65 93 99 43 9 103 128 136 131 128 117 112 127 116 109 105 102 99 95 92 91 88 85 83 81 77 76 74 73 73 75 77 79 81 83 81 81 82
56 67 82 87 34 1 11 119 110 96 97 102 106 110 79 84 126 143 136 129 128 125 113 116 118 110 106 101 98 96 94 92 91 86 83 81 78 77 76 76 76 75 76 78 79 80 81 82 82
97 91 114 127 94 23 163 112 124 125 126 157 140 116 144 161 159 135 124 121 119 113 99 85 97 101 102 99 95 92 89 88 88 88 84 82 78 76 76 75 76 78 79 79 78 77 79 81 80
113 100 92 105 129 188 169 103 118 130 143 128 129 138 189 188 142 116 104 102 110 109 99 86 84 80 80 93 99 92 83 80 79 80 80 78 74 70 70 71 72 75 75 75 75 75 78 79 77
83 82 131 181 166 177 144 97 67 79 105 102 124 159 165 133 125 115 107 101 125 142 132 117 99 84 76 86 91 83 75 69 66 66 69 66 62 61 61 64 68 70 69 69 70 72 74 74 71
85 122 196 199 175 161 141 131 144 86 84 73 61 69 109 126 136 145 157 167 175 182 183 157 141 125 100 102 85 74 69 66 64 67 68 67 62 56 59 59 65 67 66 68 67 68 70 69 64
118 161 184 185 168 153 135 135 126 130 167 199 182 156 139 142 150 164 175 180 189 186 180 172 166 152 130 101 95 82 72 66 65 70 75 75 65 55 53 51 52 56 59 60 61 61 64 68 66
116 190 167 178 135 134 160 152 129 165 208 198 171 153 151 161 173 181 184 187 183 176 184 175 165 152 138 124 107 100 89 79 76 73 79 86 74 62 59 55 53 56 59 61 61 64 64 66 68
115 204 129 156 139 147 134 165 178 221 230 127 127 140 164 176 185 189 186 181 175 184 189 179 163 159 149 129 120 112 108 102 98 89 87 100 94 79 72 63 60 60 67 66 62 64 66 63 62
168 117 348 328 151 162 152 238 169 234 164 137 147 166 181 186 185 178 177 182 188 191 190 179 169 165 150 148 143 125 128 122 107 100 97 104 111 99 89 78 67 60 67 71 73 72 72 66 63
75 48 3 347 330 186 113 334 235 212 146 154 174 186 192 196 187 188 190 191 192 190 184 179 177 163 156 159 159 138 132 125 117 116 113 114 115 115 105 89 76 70 81 84 81 70 69 69 64
50 52 353 308 338 164 129 256 266 198 157 185 199 199 201 211 207 210 200 194 189 180 178 182 178 165 167 161 152 133 132 128 128 131 122 124 124 125 117 102 82 82 89 88 84 72 70 61 62
33 67 260 299 288 151 162 243 273 181 170 200 212 214 214 222 227 221 210 200 188 184 179 176 172 169 172 160 141 124 119 119 132 133 130 138 134 133 128 115 103 106 89 81 91 72 83 79 70
213 214 246 255 270 158 211 254 277 248 194 215 221 227 229 229 232 220 209 200 186 179 175 173 170 167 161 149 131 116 98 104 114 133 147 151 144 140 130 115 105 106 95 82 86 87 70 77 81
177 190 242 259 256 199 236 262 278 284 225 236 237 231 234 241 247 211 198 187 176 174 173 173 170 172 162 160 159 155 165 173 151 151 164 162 154 147 135 116 114 115 122 127 114 100 89 66 60
181 219 261 291 305 201 257 277 286 291 233 226 231 240 239 244 249 214 189 181 189 187 185 183 182 178 178 177 171 161 154 159 167 143 131 157 155 150 147 133 148 140 129 120 122 117 114 65 46
216 207 224 252 333 10 342 318 309 303 331 309 263 247 247 236 228 217 198 196 194 197 194 191 189 185 185 172 142 117 93 76 82 100 176 168 161 154 149 150 141 143 148 160 165 150 142 157 16
242 230 208 217 255 292 157 283 293 292 319 331 299 278 260 255 234 216 202 202 203 205 195 189 185 183 182 170 166 163 167 183 202 189 184 174 150 151 153 149 143 143 147 160 177 157 150 145 168
219 247 187 204 181 276 337 213 289 309 295 293 290 284 278 259 223 212 207 208 206 197 187 184 177 179 177 176 177 175 175 185 165 145 158 183 191 162 161 160 152 155 160 169 169 156 151 150 159
152 67 54 52 85 264 251 197 282 258 239 266 283 293 293 296 236 204 196 185 187 173 173 173 173 181 177 177 179 182 182 174 161 170 183 196 213 217 184 166 162 168 172 181 182 174 168 177 169
74 81 26 356 359 257 251 191 251 260 242 232 244 266 294 325 66 109 116 149 175 169 174 175 172 183 183 182 188 193 191 181 183 190 193 192 202 223 222 194 188 190 192 182 168 170 189 188 180
165 142 162 210 230 273 305 231 257 277 303 290 247 338 9 25 55 68 141 175 185 182 176 172 175 183 186 189 196 196 192 189 197 197 196 199 207 216 210 198 194 193 189 184 167 172 195 186 199
136 162 172 148 189 260 272 281 303 332 360 14 23 39 6 348 32 36 3 52 170 170 181 179 174 175 183 193 194 193 194 197 203 204 202 205 208 208 198 193 194 196 189 180 167 186 204 191 206
137 145 102 129 175 255 283 268 251 273 287 327 353 353 314 333 356 12 360 324 185 169 175 165 165 171 175 175 188 198 203 207 205 195 200 208 208 198 190 196 201 201 195 185 181 196 211 197 215
87 98 107 124 158 176 256 270 233 224 238 242 267 289 307 307 315 328 345 354 76 107 134 150 151 147 152 172 183 191 198 199 192 200 208 205 203 194 192 199 198 199 200 196 193 208 203 205 219
175 169 152 167 231 194 210 262 288 235 230 223 262 281 299 286 301 329 4 33 58 75 104 127 148 157 178 184 180 193 199 185 185 202 208 198 200 199 196 194 196 203 205 200 200 214 213 209 219
Height
1490 1489 1490 1491 1495 1507 1511 1508 1504 1504 1504 1505 1504 1504 1507 1509 1512 1517 1513 1511 1511 1510 1509 1509 1510 1510 1511 1511 1511 1511 1511 1511 1511 1511 1510 1510 1510 1509 1508 1508 1507 1507 1508 1509 1510 1511 1512 1512 1512
1491 1491 1492 1493 1504 1518 1515 1506 1505 1504 1504 1505 1505 1506 1507 1509 1510 1511 1511 1512 1512 1512 1512 1512 1512 1512 1513 1513 1513 1513 1513 1513 1512 1512 1512 1511 1511 1510 1509 1507 1505 1505 1508 1510 1511 1512 1513 1513 1513
1492 1492 1494 1497 1508 1516 1512 1506 1505 1504 1505 1505 1507 1508 1509 1511 1511 1512 1513 1513 1513 1513 1513 1514 1514 1514 1515 1515 1515 1514 1514 1514 1514 1514 1514 1513 1513 1511 1510 1506 1503 1504 1507 1510 1512 1513 1514 1514 1514
1493 1494 1496 1504 1510 1509 1506 1505 1505 1505 1506 1506 1507 1510 1511 1513 1513 1513 1514 1514 1515 1515 1515 1516 1516 1516 1516 1516 1516 1516 1516 1516 1516 1516 1515 1515 1514 1513 1512 1509 1506 1506 1509 1511 1513 1514 1515 1515 1516
1494 1495 1503 1511 1510 1507 1505 1504 1505 1505 1507 1508 1509 1511 1512 1514 1514 1515 1515 1516 1516 1517 1517 1517 1518 1518 1518 1518 1518 1518 1518 1518 1518 1518 1517 1517 1516 1516 1515 1513 1512 1512 1513 1514 1515 1516 1517 1517 1517
1495 1497 1513 1518 1513 1508 1506 1505 1506 1506 1508 1509 1510 1512 1514 1515 1515 1516 1516 1517 1518 1518 1519 1519 1520 1520 1520 1520 1520 1520 1520 1520 1520 1520 1519 1519 1518 1518 1517 1517 1516 1516 1517 1517 1518 1518 1518 1519 1519
1497 1503 1513 1514 1514 1511 1507 1507 1507 1507 1509 1510 1511 1512 1514 1515 1516 1517 1518 1518 1519 1520 1520 1521 1521 1522 1522 1522 1522 1522 1522 1522 1522 1521 1521 1521 1521 1520 1520 1520 1520 1520 1520 1520 1520 1520 1520 1520 1520
1497 1503 1512 1514 1514 1511 1507 1507 1508 1508 1509 1511 1512 1512 1514 1515 1516 1517 1518 1519 1520 1521 1522 1522 1523 1523 1524 1524 1524 1524 1524 1524 1523 1523 1523 1523 1523 1522 1522 1522 1522 1522 1522 1522 1522 1522 1522 1522 1522
1498 1508 1516 1513 1512 1510 1507 1507 1509 1509 1510 1511 1512 1513 1513 1515 1516 1518 1519 1520 1521 1522 1522 1523 1524 1525 1525 1526 1526 1526 1525 1525 1525 1525 1525 1525 1525 1524 1524 1525 1524 1524 1524 1524 1524 1524 1524 1524 1524
1500 1511 1510 1506 1506 1506 1507 1507 1509 1510 1511 1512 1512 1513 1514 1515 1516 1517 1518 1519 1521 1522 1523 1524 1525 1526 1526 1527 1527 1527 1527 1527 1527 1527 1527 1527 1526 1526 1526 1526 1526 1526 1526 1526 1526 1526 1526 1526 1526
1500 1506 1504 1504 1504 1505 1507 1508 1509 1510 1512 1511 1511 1512 1513 1515 1516 1517 1518 1520 1521 1522 1523 1524 1525 1526 1527 1528 1528 1528 1529 1529 1528 1528 1528 1528 1528 1528 1528 1528 1528 1528 1528 1528 1528 1528 1528 1528 1528
1502 1503 1503 1504 1504 1506 1507 1508 1509 1509 1510 1510 1511 1512 1513 1514 1515 1517 1518 1520 1521 1523 1524 1525 1526 1527 1527 1528 1529 1529 1530 1530 1530 1530 1530 1530 1530 1529 1529 1529 1530 1530 1530 1529 1529 1529 1529 1530 1529
1502 1503 1503 1504 1505 1506 1507 1507 1508 1509 1509 1510 1511 1512 1513 1514 1516 1517 1519 1520 1522 1522 1524 1525 1526 1527 1528 1529 1529 1530 1530 1531 1531 1531 1531 1531 1531 1531 1531 1531 1531 1531 1531 1531 1531 1531 1531 1531 1531
1503 1503 1504 1504 1505 1506 1507 1507 1508 1508 1509 1509 1510 1511 1513 1514 1515 1517 1518 1520 1521 1522 1524 1525 1526 1527 1528 1529 1530 1530 1531 1531 1531 1531 1532 1532 1532 1532 1532 1532 1533 1533 1533 1533 1532 1532 1532 1532 1532
1503 1505 1506 1505 1505 1506 1507 1509 1507 1507 1508 1509 1510 1511 1512 1513 1515 1516 1517 1519 1520 1522 1524 1525 1526 1527 1528 1529 1530 1531 1531 1532 1532 1532 1532 1533 1533 1533 1533 1533 1534 1534 1534 1534 1533 1533 1533 1533 1533
1505 1510 1514 1508 1505 1506 1510 1515 1506 1506 1507 1508 1509 1510 1511 1512 1514 1515 1516 1518 1520 1521 1523 1524 1526 1527 1528 1529 1530 1531 1531 1532 1532 1533 1533 1533 1534 1534 1534 1534 1534 1535 1534 1535 1534 1534 1534 1534 1534
1513 1519 1517 1511 1505 1506 1509 1512 1506 1506 1506 1507 1508 1508 1509 1511 1512 1513 1515 1517 1518 1520 1522 1523 1525 1526 1528 1529 1530 1531 1532 1532 1533 1533 1533 1534 1534 1534 1535 1535 1535 1535 1535 1535 1535 1535 1535 1535 1535
1519 1519 1517 1514 1507 1507 1510 1510 1506 1505 1506 1506 1506 1507 1508 1508 1509 1511 1513 1515 1517 1519 1520 1522 1524 1526 1527 1529 1530 1531 1531 1532 1533 1533 1533 1534 1534 1535 1535 1535 1535 1536 1536 1536 1536 1536 1536 1536 1536
1511 1515 1516 1512 1506 1508 1510 1510 1506 1504 1505 1505 1505 1506 1506 1506 1508 1509 1511 1513 1515 1517 1518 1520 1522 1524 1526 1527 1528 1529 1530 1531 1532 1533 1533 1534 1534 1535 1535 1535 1535 1536 1536 1536 1536 1536 1536 1536 1536
1510 1514 1515 1510 1505 1507 1510 1509 1505 1504 1504 1503 1503 1503 1503 1504 1505 1507 1508 1510 1512 1514 1516 1518 1520 1522 1524 1525 1527 1528 1529 1530 1531 1532 1533 1533 1534 1534 1534 1535 1535 1535 1535 1536 1536 1536 1536 1536 1536
1510 1512 1512 1512 1508 1507 1510 1512 1507 1503 1502 1502 1502 1502 1502 1502 1502 1504 1506 1508 1509 1511 1513 1515 1517 1520 1522 1524 1526 1527 1528 1529 1530 1530 1531 1532 1533 1533 1534 1534 1534 1535 1535 1535 1535 1535 1535 1535 1535
1511 1504 1506 1508 1515 1520 1515 1525 1512 1507 1503 1502 1501 1500 1499 1499 1500 1501 1503 1505 1506 1508 1510 1513 1515 1517 1519 1522 1523 1524 1525 1526 1527 1528 1529 1531 1531 1532 1533 1533 1534 1534 1534 1534 1534 1534 1535 1535 1534
1504 1501 1504 1507 1513 1520 1519 1524 1517 1508 1507 1503 1500 1498 1497 1497 1498 1499 1501 1502 1504 1506 1508 1510 1513 1515 1517 1519 1521 1522 1523 1524 1526 1527 1528 1529 1530 1530 1531 1532 1532 1532 1533 1533 1533 1533 1533 1533 1533
1501 1505 1509 1514 1519 1528 1522 1525 1521 1511 1506 1502 1499 1497 1496 1496 1496 1497 1498 1500 1502 1504 1506 1508 1510 1512 1514 1516 1518 1519 1520 1522 1523 1524 1526 1527 1528 1529 1529 1530 1530 1531 1531 1531 1532 1532 1532 1532 1532
1503 1515 1528 1528 1534 1531 1519 1522 1517 1504 1500 1499 1497 1496 1496 1495 1495 1495 1496 1498 1500 1501 1503 1505 1507 1509 1511 1513 1515 1517 1518 1519 1520 1521 1523 1524 1525 1526 1527 1528 1528 1529 1529 1530 1530 1530 1530 1530 1530
1506 1512 1528 1534 1536 1530 1520 1521 1511 1500 1497 1497 1496 1496 1495 1495 1495 1495 1496 1496 1498 1499 1501 1502 1504 1506 1508 1510 1512 1514 1515 1517 1518 1519 1520 1521 1522 1524 1525 1526 1526 1526 1527 1527 1527 1528 1528 1528 1528
1506 1512 1512 1524 1526 1530 1524 1517 1507 1498 1497 1497 1496 1495 1495 1494 1494 1494 1495 1496 1497 1498 1499 1500 1502 1504 1505 1507 1509 1511 1512 1514 1515 1517 1518 1519 1520 1521 1522 1523 1524 1524 1524 1525 1525 1525 1525 1525 1525
1501 1507 1518 1524 1531 1533 1524 1520 1515 1504 1500 1498 1497 1496 1495 1494 1494 1494 1494 1494 1495 1496 1497 1498 1500 1501 1503 1504 1506 1508 1509 1511 1512 1514 1515 1516 1517 1518 1519 1520 1521 1521 1522 1522 1522 1522 1523 1523 1523
1506 1510 1515 1523 1524 1532 1531 1523 1503 1501 1498 1498 1497 1496 1496 1495 1494 1494 1494 1494 1495 1495 1496 1497 1498 1499 1501 1502 1504 1505 1506 1508 1509 1510 1512 1513 1514 1515 1516 1517 1518 1518 1519 1519 1519 1519 1520 1520 1519
1500 1505 1512 1521 1524 1526 1528 1521 1498 1497 1496 1496 1496 1496 1495 1495 1494 1494 1494 1494 1494 1494 1495 1496 1497 1498 1499 1500 1501 1502 1504 1505 1505 1507 1508 1509 1511 1512 1513 1514 1514 1515 1516 1516 1516 1516 1516 1516 1516